| time (UTC) | temp C | wind direction | speed KPH | gust KPH | rain 1hr cm | rain 24hr cm | rain mn cm | humidity % | barometer mb |
| 20260510104536 | 20 | 0 | 0.0 | 0.0 | 0.00 | 0.00 | 0.00 | 94 | 1015.4 |
| 20260510103035 | 20 | 0 | 0.0 | 0.0 | 0.00 | 0.00 | 0.00 | 94 | 1015.3 |
| 20260510101536 | 20 | 0 | 0.0 | 0.0 | 0.00 | 0.00 | 0.00 | 94 | 1015.2 |
| 20260510100038 | 20 | 0 | 0.0 | 0.0 | 0.00 | 0.00 | 0.00 | 94 | 1015.1 |
| 20260510094541 | 20 | 0 | 0.0 | 0.0 | 0.00 | 0.00 | 0.00 | 94 | 1014.9 |
| 20260510093036 | 20 | 0 | 0.0 | 0.0 | 0.00 | 0.00 | 0.00 | 94 | 1014.8 |
| 20260510091534 | 20 | 0 | 0.0 | 0.0 | 0.00 | 0.00 | 0.00 | 94 | 1014.7 |
| 20260510090036 | 20 | 0 | 0.0 | 0.0 | 0.00 | 0.00 | 0.00 | 94 | 1014.7 |
| 20260510084824 | 20 | 0 | 0.0 | 0.0 | 0.00 | 0.00 | 0.00 | 94 | 1014.2 |
| 20260510083607 | 20 | 0 | 0.0 | 0.0 | 0.00 | 0.00 | 0.00 | 94 | 1014.2 |
| 20260510081834 | 20 | 0 | 0.0 | 0.0 | 0.00 | 0.00 | 0.00 | 94 | 1014.3 |
| 20260510080033 | 20 | 0 | 0.0 | 0.0 | 0.00 | 0.00 | 0.00 | 94 | 1014.5 |
| 20260510074541 | 20 | 0 | 0.0 | 0.0 | 0.00 | 0.00 | 0.00 | 94 | 1014.3 |
| 20260510073035 | 20 | 0 | 0.0 | 0.0 | 0.00 | 0.00 | 0.00 | 93 | 1014.1 |
| 20260510071537 | 20 | 0 | 0.0 | 0.0 | 0.00 | 0.00 | 0.00 | 93 | 1014.0 |
| 20260510070037 | 20 | 0 | 0.0 | 0.0 | 0.00 | 0.00 | 0.00 | 93 | 1014.0 |
| 20260510064536 | 20 | 0 | 0.0 | 0.0 | 0.00 | 0.00 | 0.00 | 93 | 1014.2 |
| 20260510063035 | 21 | 0 | 0.0 | 0.0 | 0.00 | 0.00 | 0.00 | 93 | 1014.2 |
| 20260510061535 | 21 | 0 | 0.0 | 0.0 | 0.00 | 0.00 | 0.00 | 93 | 1014.2 |
| 20260510060035 | 21 | 0 | 0.0 | 0.0 | 0.00 | 0.00 | 0.00 | 93 | 1014.2 |
| 20260510054542 | 21 | 0 | 0.0 | 0.0 | 0.00 | 0.03 | 0.00 | 93 | 1014.5 |
| 20260510053035 | 21 | 0 | 0.0 | 0.0 | 0.00 | 0.03 | 0.00 | 93 | 1014.6 |
| 20260510051536 | 21 | 0 | 0.0 | 0.0 | 0.00 | 0.03 | 0.00 | 93 | 1014.7 |
| 20260510050037 | 21 | 0 | 0.0 | 0.0 | 0.00 | 0.03 | 0.00 | 92 | 1014.8 |
| 20260510044541 | 21 | 0 | 0.0 | 0.0 | 0.00 | 0.05 | 0.00 | 92 | 1014.8 |
| 20260510043035 | 21 | 0 | 0.0 | 3.2 | 0.00 | 0.05 | 0.00 | 92 | 1014.5 |
| 20260510041546 | 21 | 0 | 0.0 | 0.0 | 0.00 | 0.05 | 0.00 | 93 | 1014.4 |
| 20260510040040 | 21 | 0 | 0.0 | 0.0 | 0.00 | 0.05 | 0.00 | 92 | 1014.4 |
| 20260510034537 | 21 | 0 | 0.0 | 0.0 | 0.00 | 0.08 | 0.05 | 92 | 1014.3 |
| 20260510033035 | 21 | 0 | 0.0 | 0.0 | 0.00 | 0.08 | 0.05 | 92 | 1014.4 |
| 20260510031548 | 21 | 0 | 0.0 | 0.0 | 0.00 | 0.08 | 0.05 | 92 | 1014.4 |
| 20260510030038 | 21 | 0 | 0.0 | 0.0 | 0.00 | 0.08 | 0.05 | 92 | 1014.1 |
| 20260510024541 | 21 | 0 | 0.0 | 0.0 | 0.00 | 0.08 | 0.05 | 92 | 1014.2 |
| 20260510023035 | 21 | 0 | 0.0 | 0.0 | 0.00 | 0.08 | 0.05 | 91 | 1014.3 |
| 20260510021534 | 21 | 0 | 0.0 | 0.0 | 0.00 | 0.08 | 0.05 | 91 | 1014.0 |
| 20260510020035 | 21 | 0 | 0.0 | 0.0 | 0.00 | 0.08 | 0.05 | 90 | 1014.0 |
| 20260510014532 | 21 | 0 | 0.0 | 0.0 | 0.00 | 0.08 | 0.05 | 90 | 1013.8 |
| 20260510013042 | 21 | 0 | 0.0 | 0.0 | 0.00 | 0.08 | 0.05 | 90 | 1014.0 |
| 20260510011535 | 21 | 0 | 0.0 | 0.0 | 0.00 | 0.08 | 0.05 | 90 | 1013.7 |
| 20260510010035 | 21 | 0 | 0.0 | 0.0 | 0.00 | 0.08 | 0.05 | 90 | 1013.6 |
| 20260510004541 | 21 | 0 | 0.0 | 0.0 | 0.00 | 0.08 | 0.05 | 90 | 1013.4 |
| 20260510003034 | 21 | 0 | 0.0 | 0.0 | 0.00 | 0.08 | 0.05 | 90 | 1013.1 |
| 20260510001535 | 22 | 0 | 0.0 | 0.0 | 0.00 | 0.08 | 0.05 | 89 | 1013.1 |
| 20260510000035 | 22 | 0 | 0.0 | 0.0 | 0.00 | 0.08 | 0.05 | 89 | 1013.0 |
| 20260509234535 | 22 | 0 | 0.0 | 0.0 | 0.00 | 0.08 | 0.05 | 89 | 1013.0 |
| 20260509233035 | 22 | 0 | 0.0 | 0.0 | 0.00 | 0.08 | 0.05 | 89 | 1012.8 |
| 20260509231546 | 22 | 0 | 0.0 | 0.0 | 0.00 | 0.08 | 0.05 | 88 | 1012.7 |
| 20260509230036 | 22 | 0 | 0.0 | 0.0 | 0.00 | 0.08 | 0.05 | 89 | 1012.3 |
| 20260509224536 | 22 | 0 | 0.0 | 0.0 | 0.00 | 0.08 | 0.05 | 88 | 1012.5 |
| 20260509223043 | 22 | 0 | 0.0 | 0.0 | 0.00 | 0.08 | 0.05 | 88 | 1012.7 |
| 20260509221536 | 22 | 0 | 0.0 | 0.0 | 0.00 | 0.08 | 0.05 | 88 | 1012.7 |
| 20260509220044 | 22 | 0 | 0.0 | 0.0 | 0.00 | 0.08 | 0.05 | 89 | 1012.7 |
| 20260509214534 | 22 | 0 | 0.0 | 0.0 | 0.00 | 0.08 | 0.05 | 88 | 1013.0 |
| 20260509213035 | 22 | 0 | 0.0 | 0.0 | 0.00 | 0.08 | 0.05 | 88 | 1013.1 |
| 20260509211536 | 22 | 0 | 0.0 | 0.0 | 0.00 | 0.08 | 0.05 | 88 | 1013.0 |
| 20260509210048 | 22 | 0 | 0.0 | 0.0 | 0.00 | 0.08 | 0.05 | 87 | 1012.8 |
| 20260509204535 | 23 | 0 | 0.0 | 0.0 | 0.00 | 0.08 | 0.05 | 87 | 1013.0 |
| 20260509203036 | 23 | 0 | 0.0 | 0.0 | 0.00 | 0.08 | 0.05 | 87 | 1012.9 |
| 20260509201534 | 23 | 0 | 0.0 | 0.0 | 0.00 | 0.08 | 0.05 | 86 | 1012.8 |
| 20260509200046 | 23 | 0 | 0.0 | 0.0 | 0.00 | 0.08 | 0.05 | 86 | 1012.9 |
| 20260509194535 | 24 | 0 | 0.0 | 0.0 | 0.00 | 0.08 | 0.05 | 86 | 1013.0 |
| 20260509193035 | 24 | 0 | 0.0 | 0.0 | 0.00 | 0.08 | 0.05 | 85 | 1012.7 |
| 20260509191535 | 24 | 0 | 0.0 | 3.2 | 0.00 | 0.08 | 0.05 | 84 | 1012.7 |
| 20260509190039 | 25 | 0 | 0.0 | 1.6 | 0.00 | 0.08 | 0.05 | 82 | 1012.7 |
| 20260509184540 | 25 | 0 | 0.0 | 3.2 | 0.00 | 0.08 | 0.05 | 81 | 1012.7 |
| 20260509183035 | 25 | 0 | 0.0 | 0.0 | 0.00 | 0.08 | 0.05 | 81 | 1012.8 |
| 20260509181536 | 25 | 0 | 0.0 | 0.0 | 0.00 | 0.08 | 0.05 | 81 | 1013.0 |
| 20260509180035 | 25 | 0 | 0.0 | 3.2 | 0.00 | 0.08 | 0.05 | 81 | 1013.3 |
| 20260509174535 | 25 | 0 | 0.0 | 3.2 | 0.00 | 0.08 | 0.05 | 82 | 1013.2 |
| 20260509173100 | 25 | 115 | 0.0 | 3.2 | 0.00 | 0.08 | 0.05 | 86 | 1013.2 |
| 20260509171540 | 25 | 0 | 0.0 | 6.4 | 0.00 | 0.08 | 0.05 | 85 | 1013.4 |
| 20260509170046 | 25 | 139 | 1.6 | 4.8 | 0.00 | 0.08 | 0.05 | 84 | 1013.4 |
| 20260509164535 | 25 | 0 | 0.0 | 6.4 | 0.00 | 0.08 | 0.05 | 83 | 1013.5 |
| 20260509163040 | 26 | 210 | 1.6 | 8.0 | 0.00 | 0.08 | 0.05 | 82 | 1013.5 |
| 20260509161540 | 25 | 0 | 0.0 | 4.8 | 0.00 | 0.08 | 0.05 | 86 | 1013.7 |
| 20260509160036 | 25 | 181 | 0.0 | 4.8 | 0.00 | 0.08 | 0.05 | 87 | 1013.7 |
| 20260509154535 | 24 | 200 | 1.6 | 4.8 | 0.00 | 0.08 | 0.05 | 87 | 1013.8 |
| 20260509153036 | 23 | 136 | 0.0 | 3.2 | 0.00 | 0.08 | 0.05 | 89 | 1014.0 |
| 20260509151545 | 23 | 0 | 0.0 | 3.2 | 0.00 | 0.08 | 0.05 | 90 | 1013.8 |
| 20260509150045 | 22 | 0 | 0.0 | 0.0 | 0.00 | 0.08 | 0.05 | 90 | 1014.2 |
| 20260509144535 | 22 | 0 | 0.0 | 1.6 | 0.00 | 0.08 | 0.05 | 90 | 1014.2 |
| 20260509143041 | 22 | 0 | 0.0 | 1.6 | 0.00 | 0.08 | 0.05 | 94 | 1014.3 |
| 20260509141535 | 22 | 0 | 0.0 | 0.0 | 0.00 | 0.08 | 0.05 | 94 | 1014.0 |
| 20260509140034 | 22 | 0 | 0.0 | 1.6 | 0.00 | 0.08 | 0.05 | 95 | 1013.8 |
| 20260509134540 | 22 | 0 | 0.0 | 1.6 | 0.00 | 0.08 | 0.05 | 95 | 1013.8 |
| 20260509133037 | 22 | 0 | 0.0 | 0.0 | 0.00 | 0.08 | 0.05 | 96 | 1013.9 |
| 20260509131542 | 22 | 0 | 0.0 | 0.0 | 0.00 | 0.08 | 0.05 | 96 | 1013.9 |
| 20260509130056 | 22 | 0 | 0.0 | 0.0 | 0.00 | 0.08 | 0.05 | 96 | 1014.3 |
| 20260509124537 | 21 | 0 | 0.0 | 0.0 | 0.00 | 0.08 | 0.05 | 96 | 1013.9 |
| 20260509123102 | 22 | 0 | 0.0 | 0.0 | 0.00 | 0.08 | 0.05 | 96 | 1013.9 |
| 20260509121541 | 21 | 0 | 0.0 | 4.8 | 0.00 | 0.08 | 0.05 | 98 | 1013.4 |
| 20260509120046 | 20 | 0 | 0.0 | 0.0 | 0.00 | 0.08 | 0.05 | 96 | 1013.6 |
| 20260509114541 | 20 | 0 | 0.0 | 0.0 | 0.00 | 0.08 | 0.05 | 97 | 1013.6 |
| 20260509113036 | 18 | 0 | 0.0 | 0.0 | 0.00 | 0.08 | 0.05 | 96 | 1013.4 |
| 20260509111534 | 18 | 0 | 0.0 | 0.0 | 0.00 | 0.08 | 0.05 | 96 | 1013.3 |
| 20260509110039 | 18 | 0 | 0.0 | 0.0 | 0.00 | 0.08 | 0.05 | 96 | 1013.2 |